Location: Orange Harbor Mobile Home Park
(26.6923°N, 81.7937°W)
Time: 10:15:59
(UTC+00:00)

Cosmos 1174 - Pass Details

Date: 19 September 2020
Orbit: 362 x 1155 km, 66.1° (Epoch: 29 October)

Event Time Altitude Azimuth Distance (km) Brightness Sun altitude
Rises 00:17:06 0° 192° (SSW) 2,605 7.3 -11.9°
Reaches altitude 10° 00:19:04 10° 187° (S) 1,822 6.5 -12.3°
Maximum altitude 00:23:03 54° 110° (ESE) 780 4.2 -13.2°
Drops below altitude 10° 00:28:09 10° 33° (NNE) 2,317 6.7 -14.3°
Sets 00:30:55 0° 30° (NNE) 3,393 7.6 -14.9°
